Regional Weather Roundup
Issued by NWS

Home | Current Version | Previous Version | Graphics & Text | Print | Product List | Glossary On
Versions: 1 2 3 4 5 6 7 8 9 10 11 12 13 14 15 16 17 18 19 20 21 22 23 24 25 26 27 28 29 30 31 32 33 34 35 36 37 38 39 40 41 42 43 44 45 46 47 48 49 50
000
ASUS43 KBIS 240810
RWRND

NORTH DAKOTA REGIONAL WEATHER ROUNDUP
NATIONAL WEATHER SERVICE BISMARCK ND
300 AM CDT TUE MAY 24 2016

NOTE: "FAIR" INDICATES FEW OR NO CLOUDS BELOW 12,000 FEET WITH NO
SIGNIFICANT WEATHER AND/OR OBSTRUCTIONS TO VISIBILITY.


NDZ001>003-009>011-017-240900-
NORTHWEST NORTH DAKOTA

CITY           SKY/WX    TMP DP  RH WIND       PRES   REMARKS
WILLISTON      CLEAR     47  39  74 SW3       29.79R
MINOT          CLOUDY    53  41  63 SE3       29.76R
MINOT AFB      CLOUDY    47  39  74 W8        29.75S
$$

NDZ018>021-031>035-040>046-240900-
SOUTHWEST NORTH DAKOTA

CITY           SKY/WX    TMP DP  RH WIND       PRES   REMARKS
BISMARCK       MOCLDY    53  45  74 NE3       29.76S
DICKINSON      PTCLDY    41  34  76 NW7       29.80S
GARRISON         N/A     49  40  71 NW6       29.79R
HETTINGER ARPT CLEAR     37  33  85 W5        29.83R
$$

NDZ004>008-012>016-024-026-027-054-240900-
NORTHEAST NORTH DAKOTA

CITY           SKY/WX    TMP DP  RH WIND       PRES   REMARKS
GRAND FORKS    CLOUDY    60  51  72 MISG      29.76R
GRND FRKS AFB  LGT RAIN  57  54  88 W17       29.80R
DEVILS LAKE    CLOUDY    60  45  57 SE9       29.77S
$$

NDZ022-023-025-028>030-036>039-047>053-240900-
SOUTHEAST NORTH DAKOTA

CITY           SKY/WX    TMP DP  RH WIND       PRES   REMARKS
FARGO          PTCLDY    61  47  59 NE5       29.73S
JAMESTOWN      CLOUDY    58  49  72 N12       29.78F
$$




USA.gov is the U.S. government's official web portal to all federal, state and local government web resources and services.